Regional Weather Roundup
Issued by NWS

Home | Current Version | Previous Version | Text Only | Print | Product List | Glossary On
Versions: 1 2 3 4 5 6 7 8 9 10 11 12 13 14 15 16 17 18 19 20 21 22 23 24 25 26 27 28 29 30 31 32 33 34 35 36 37 38 39 40 41 42 43 44 45 46 47 48 49 50
000
ASUS43 KLMK 191410
RWRKY
KENTUCKY REGIONAL WEATHER ROUNDUP
NATIONAL WEATHER SERVICE LOUISVILLE KY
900 AM EST FRI DEC 19 2014

NOTE "FAIR" INDICATES FEW OR NO CLOUDS BELOW 12,000 FEET
WITH NO SIGNIFICANT WEATHER AND/OR OBSTRUCTIONS TO VISIBILITY.

KYZ001>023-026-027-061>063-070>075-191500-
WESTERN AND SOUTH CENTRAL KENTUCKY

CITY           SKY/WX    TMP DP  RH WIND       PRES   REMARKS
PADUCAH        CLOUDY    33  27  78 NE8       30.29S WCI  26
HENDERSON      CLOUDY    30  25  80 NE5       30.32R WCI  25
OWENSBORO      CLOUDY    31  25  78 N8        30.32R WCI  24
HOPKINSVILLE   CLOUDY    33  28  83 NE5       30.28R WCI  28
BOWLING GREEN  CLOUDY    32  27  81 N3        30.28F HAZE
GLASGOW        MOSUNNY   30  27  88 CALM      30.27S
$$

KYZ024-025-028>034-038-045-046-053-191500-
NORTH CENTRAL KENTUCKY

CITY           SKY/WX    TMP DP  RH WIND       PRES   REMARKS
LOUISVILLE/SDF CLEAR     29  23  78 NE5       30.30F HAZE    WCI  24
LOUISVILLE/LOU CLEAR     28  23  81 N5        30.30F WCI  23
FORT KNOX      CLEAR     28  23  82 NE3       30.27F
$$

KYZ035>037-039>044-047>052-055>060-089>105-191500-
NORTHEAST KENTUCKY

CITY           SKY/WX    TMP DP  RH WIND       PRES   REMARKS
LEXINGTON      SUNNY     27  23  85 N5        30.27F WCI  22
COVINGTON      CLOUDY    28  18  66 N6        30.29R WCI  22
FRANKFORT      PTSUNNY   26  22  84 CALM      30.28R FOG
$$

KYZ054-064>069-076>088-106>120-191500-
SOUTHEAST KENTUCKY

CITY           SKY/WX    TMP DP  RH WIND       PRES   REMARKS
JACKSON        MOSUNNY   30  24  78 CALM      30.24S
LONDON         CLOUDY    33  25  72 NE7       30.24R WCI  27
SOMERSET       MOSUNNY   30  25  80 NE5       30.27S WCI  25
MIDDLESBORO    SUNNY     33  27  76 CALM      30.23S
MONTICELLO     MOSUNNY   31  28  88 NE5       30.28S FOG     WCI  26
$$




USA.gov is the U.S. government's official web portal to all federal, state and local government web resources and services.